Location: Berduj
(43.0019°N, 22.3781°E)
Time: 05:40:59
(UTC+00:00)

SPOT 3 Rocket - Pass Details

Date: 19 October 2019
Orbit: 779 x 794 km, 98.8° (Epoch: 12 November)

Event Time Altitude Azimuth Distance (km) Brightness Sun altitude
Exits shadow 17:47:16 38° 37° (NE) 1,202 4.2 -23.6°
Drops below altitude 10° 17:51:03 10° 359° (N) 2,364 6.1 -24.3°
Sets 17:53:28 0° 353° (N) 3,299 7.0 -24.7°
